Wetbulb
65.22 62.01 59.86 57.47 46.80 45.60 41.54 47.10 51.33 51.83 54.91 57.29 55.95 55.32 54.54 54.42 54.67 50.63 62.55 67.68 68.97 69.65 71.49 72.87 73.99 73.54 73.23 72.73 72.26 71.70 71.18 70.42 70.08 69.16 67.88 67.43 67.12 66.90 66.53 66.32 65.97 66.18 66.32 66.16 66.37 66.64 66.85 66.88 66.72
60.82 59.58 55.27 53.64 44.32 40.87 43.38 48.63 49.09 55.06 58.18 60.46 59.13 56.32 57.93 57.43 62.43 63.97 65.00 69.15 68.97 70.34 70.99 71.37 73.89 73.66 73.29 72.74 72.10 71.61 71.23 70.78 70.55 69.56 68.12 67.78 67.51 67.19 66.87 66.63 66.53 66.66 67.04 66.83 66.77 67.12 67.49 68.23 68.40
62.40 60.45 49.24 47.41 45.27 42.31 44.26 50.61 54.37 58.03 59.85 59.54 57.87 60.05 58.11 58.92 63.63 64.29 67.03 69.27 69.19 69.47 70.63 70.87 73.79 73.52 73.46 72.97 72.33 71.61 71.29 71.21 70.63 69.51 69.14 68.77 68.29 68.47 67.99 67.21 67.39 67.50 67.99 67.78 68.02 68.37 68.48 68.53 69.34
57.57 54.96 50.00 44.75 45.03 49.41 50.92 54.32 57.33 57.97 59.27 59.70 59.25 56.70 58.83 62.13 62.96 66.23 69.58 69.24 68.40 68.96 69.84 72.28 73.42 73.27 73.29 73.09 72.45 71.71 71.63 71.61 71.19 70.52 69.99 69.57 68.89 69.35 68.94 68.18 68.21 68.15 68.33 68.86 69.35 69.48 69.61 69.42 69.25
56.50 50.30 42.63 42.44 45.89 50.69 54.19 55.70 55.87 56.51 58.07 58.88 59.19 56.61 57.71 63.44 65.28 69.66 69.16 69.21 67.55 67.69 68.20 71.61 73.52 73.42 73.27 73.22 72.70 71.96 71.81 71.61 71.66 71.51 70.86 70.23 70.47 70.11 69.24 68.90 68.69 68.59 68.64 69.27 69.80 70.19 70.54 70.35 70.10
49.04 48.21 41.51 41.11 45.63 51.16 53.23 55.53 56.14 57.87 58.59 58.62 58.06 57.28 56.67 62.12 66.41 69.02 69.70 68.43 68.63 67.09 67.09 70.41 73.37 73.34 72.92 73.05 72.57 72.20 71.81 71.66 71.76 71.83 71.66 71.41 71.29 70.92 70.26 69.80 69.35 69.39 69.77 70.21 70.53 70.82 70.28 70.04 69.50
47.13 43.34 41.33 43.97 46.36 49.19 53.16 56.45 54.11 55.99 55.23 55.20 57.36 54.91 56.94 60.20 62.73 68.36 69.19 68.93 68.57 67.80 66.61 69.15 70.30 72.01 73.34 73.02 72.45 72.15 71.76 71.58 71.63 71.58 71.55 71.73 71.61 71.38 71.24 71.02 70.50 70.13 70.50 70.99 71.04 70.43 69.82 69.30 69.18
49.38 44.98 41.31 43.77 45.41 46.71 54.25 54.76 54.87 54.99 55.01 58.92 58.92 54.61 53.70 59.04 61.63 61.35 62.14 63.75 67.31 67.25 67.36 68.13 68.41 69.74 70.33 70.62 72.97 72.37 72.07 71.68 71.48 71.62 71.67 71.67 71.87 71.65 71.45 70.99 71.29 70.77 71.09 70.87 70.72 69.99 68.67 67.99 67.87
54.04 41.79 39.20 43.55 46.31 48.70 53.57 53.98 58.21 58.66 57.08 57.57 59.09 57.86 59.76 61.66 62.43 59.19 57.78 57.40 63.05 67.24 67.71 68.35 68.48 67.71 69.52 69.40 71.07 72.39 72.77 72.24 71.75 71.67 71.67 70.80 68.84 69.01 69.28 70.57 70.86 71.28 71.35 71.06 70.23 69.38 68.43 67.75 67.24
52.21 44.59 43.16 48.39 50.13 48.32 50.91 52.55 53.87 54.49 54.97 55.82 58.08 60.20 60.49 60.92 58.31 57.42 56.97 56.48 58.60 65.05 67.46 68.32 68.56 67.80 67.82 68.66 68.72 69.97 69.65 69.45 69.43 68.79 68.61 68.65 67.22 66.46 68.77 69.30 71.25 71.64 71.93 71.04 70.18 69.35 68.45 67.22 62.64
52.64 49.38 50.88 50.66 52.56 52.47 50.99 52.02 54.25 52.97 51.86 55.01 56.03 57.54 58.96 59.22 58.36 57.02 57.83 57.35 57.16 59.23 67.55 68.57 68.55 68.59 67.62 66.73 67.66 69.39 68.86 68.67 68.71 68.20 67.88 68.01 67.32 65.81 66.03 64.78 66.93 69.13 70.88 67.18 68.22 66.23 64.91 62.67 62.24
49.89 54.10 55.66 55.92 56.51 54.05 51.46 53.26 52.35 53.15 53.40 57.04 57.44 57.88 58.10 57.93 57.36 56.86 57.19 57.23 57.02 57.02 65.68 68.71 68.74 68.34 68.04 67.27 67.09 68.17 67.99 68.24 68.32 68.28 67.22 67.13 65.25 63.97 63.58 63.62 63.88 64.49 64.70 63.50 62.50 61.97 61.94 61.90 62.47
46.10 51.61 53.48 54.54 54.70 54.73 55.04 53.05 52.60 52.99 55.85 57.86 57.81 57.23 56.22 56.09 56.07 56.35 57.33 57.23 57.35 56.45 58.68 67.68 68.61 68.27 68.21 67.33 67.67 67.57 67.46 67.68 68.29 67.88 67.02 66.86 65.26 64.38 64.12 63.51 62.76 63.44 62.46 62.57 61.82 61.69 62.08 61.90 62.04
46.26 47.41 50.41 52.45 51.74 52.77 51.94 52.67 53.84 54.90 57.53 57.21 56.12 55.22 55.32 54.83 55.76 56.03 56.46 56.76 56.59 57.38 56.72 65.58 68.01 68.50 68.45 67.68 67.14 67.73 67.65 67.16 67.32 67.24 66.54 66.66 66.11 65.01 63.78 62.87 62.12 63.07 63.03 62.50 61.89 61.90 61.43 61.63 62.06
46.60 42.72 45.68 47.23 49.20 50.67 52.71 49.14 50.12 54.83 56.07 54.91 54.87 55.41 55.23 55.32 56.14 56.32 57.03 56.84 57.49 56.93 58.29 63.56 67.87 68.67 68.18 67.80 66.68 67.71 67.69 67.42 66.72 66.37 66.51 66.77 66.34 64.82 64.05 63.16 63.73 62.54 61.98 61.55 61.88 61.48 61.31 60.76 60.80
42.73 42.52 39.66 45.93 47.79 48.72 50.41 45.16 52.21 54.48 53.64 53.25 54.34 55.23 56.11 55.86 56.85 57.85 57.20 56.09 56.18 57.49 57.46 59.76 67.39 68.59 68.33 67.86 66.78 67.77 67.76 67.40 66.84 66.81 67.09 67.34 66.63 65.20 63.90 63.12 62.48 62.97 62.72 62.18 61.44 61.01 61.19 60.22 60.19
39.94 37.25 38.94 42.32 47.37 47.73 47.63 45.40 51.37 54.18 53.70 52.16 52.96 54.22 55.44 56.30 57.09 55.72 57.28 57.64 58.24 57.88 57.43 57.79 64.58 66.30 67.40 67.67 66.58 67.40 67.52 67.47 66.61 66.63 67.34 67.08 66.48 65.73 64.53 63.34 62.78 62.59 62.48 61.58 61.23 60.66 59.98 59.02 59.02
35.12 37.50 40.29 40.16 45.08 47.18 46.08 45.70 49.44 51.54 51.87 51.89 52.87 53.86 54.62 55.23 55.99 56.83 57.66 58.03 57.28 56.57 58.05 58.89 65.21 65.28 66.12 66.21 66.53 66.26 65.55 64.66 64.75 65.51 66.33 66.30 66.22 66.08 63.80 63.18 62.71 62.57 61.89 61.37 60.01 60.47 59.69 59.50 59.02
41.46 40.41 39.73 42.72 46.29 45.23 45.32 45.87 48.04 50.59 51.21 50.26 51.30 52.47 53.71 54.49 56.12 56.41 55.67 57.45 58.15 57.47 58.17 60.51 65.46 65.84 67.55 66.70 66.92 65.92 63.56 63.67 63.02 63.58 64.93 65.24 65.13 65.24 63.49 62.91 62.49 62.20 61.49 61.04 59.94 59.38 59.42 58.96 59.99
39.42 37.96 37.97 41.75 45.22 45.22 44.81 44.55 48.13 50.07 50.74 51.62 52.06 52.34 52.42 52.83 53.28 55.39 56.04 56.83 57.16 58.78 61.41 61.72 65.62 67.58 68.09 67.84 67.40 65.09 64.39 62.84 63.18 63.71 65.09 64.95 64.56 64.44 63.61 62.35 61.38 61.37 60.70 60.06 59.08 58.78 56.69 57.25 58.42
38.76 37.10 38.11 38.44 42.56 43.84 42.05 40.76 43.55 47.41 48.71 49.79 50.81 52.45 52.00 52.39 53.23 54.36 55.37 55.00 56.04 60.13 62.66 65.22 66.91 67.54 67.40 66.82 65.35 62.84 62.25 61.73 61.08 62.13 62.48 63.22 63.84 63.50 62.88 61.70 61.04 60.64 60.08 59.08 58.55 57.97 56.97 55.43 55.75
35.06 41.87 41.43 40.39 38.74 34.17 42.46 33.57 41.49 44.53 46.25 48.01 49.23 49.11 50.18 52.55 52.68 54.06 54.75 53.48 58.75 61.26 64.79 66.91 67.13 67.34 67.22 67.05 64.44 63.67 60.33 59.59 60.06 61.09 61.71 62.06 63.72 63.50 62.90 62.38 61.73 60.51 59.52 58.91 58.75 59.25 57.45 55.95 54.37
37.16 43.46 41.54 41.17 37.93 37.10 37.89 33.48 39.92 43.74 44.05 46.42 48.59 50.31 50.19 51.45 52.64 52.91 52.72 55.93 60.45 63.71 65.25 67.34 67.14 67.02 65.86 64.95 63.88 62.34 60.38 59.88 59.97 60.94 61.49 61.28 61.57 62.40 63.15 61.76 60.84 60.11 59.40 58.87 59.47 58.97 58.07 57.15 55.79
41.31 40.69 40.23 39.68 35.32 29.49 36.62 35.46 35.26 40.06 43.57 45.47 48.07 49.66 51.38 51.43 51.53 52.13 57.52 61.49 62.15 64.10 66.39 66.62 66.11 64.71 63.98 63.19 61.79 60.60 60.60 59.92 60.13 59.73 60.14 59.81 59.72 60.36 61.36 61.69 60.22 59.76 59.54 59.21 59.25 59.30 58.67 57.85 57.21
36.88 31.27 26.26 24.52 26.68 28.70 38.21 35.31 38.48 42.13 45.47 47.02 47.95 49.68 50.94 51.64 54.75 58.50 59.62 61.16 62.93 64.68 65.38 64.57 64.38 62.62 62.59 61.32 61.10 60.61 60.56 59.80 59.95 59.76 59.67 59.16 59.19 59.49 59.89 60.03 59.43 59.34 59.93 60.26 59.74 59.12 58.51 58.43 58.33
33.05 31.72 26.10 21.38 23.78 29.02 38.60 32.33 36.94 45.22 47.81 48.96 49.93 51.06 54.49 55.97 57.48 58.25 59.80 61.69 63.43 64.17 63.96 62.76 62.34 62.12 61.42 61.47 60.31 60.29 60.52 60.25 59.87 59.56 59.59 59.49 59.23 59.30 59.86 59.93 59.65 60.07 61.03 61.46 60.90 59.37 59.21 59.30 58.84
34.28 30.59 34.76 30.35 34.05 28.83 33.79 38.18 42.47 45.63 46.28 47.51 48.16 53.49 54.82 55.65 57.46 58.98 60.76 62.16 62.72 62.19 62.36 61.49 61.55 60.95 60.96 61.22 60.65 60.33 60.89 60.63 59.90 59.27 59.61 59.33 59.21 59.87 59.45 60.42 60.57 61.09 61.97 61.84 61.35 59.94 59.56 59.52 58.72
37.38 39.40 29.68 29.05 23.97 22.63 31.36 34.09 35.72 42.39 44.22 46.88 46.75 52.50 54.54 56.45 57.81 59.12 60.75 61.76 61.70 61.73 61.42 60.81 61.07 60.34 61.01 60.80 60.93 61.03 60.88 60.76 60.48 60.22 59.74 59.73 58.64 59.81 60.37 60.16 60.80 61.41 61.31 61.11 60.35 59.40 60.29 60.15 60.33
33.36 32.33 32.58 32.31 30.69 27.58 25.55 31.35 41.89 42.58 45.55 47.75 46.84 54.43 55.76 56.86 57.43 59.13 60.64 60.97 61.24 61.83 61.16 60.32 60.66 60.50 60.87 60.42 60.20 60.68 60.44 60.49 60.07 59.19 59.58 59.46 58.65 59.60 59.66 60.51 61.15 61.19 60.32 60.00 59.40 60.48 61.17 61.02 60.43
36.88 34.12 33.65 26.88 26.98 31.98 31.17 33.75 45.81 45.04 46.88 48.23 53.58 56.02 56.36 57.18 57.84 59.63 60.36 60.73 61.14 60.95 60.64 59.76 60.12 60.26 60.71 60.24 59.73 59.69 60.03 59.33 59.36 59.54 59.49 59.08 58.40 59.42 59.68 60.30 61.88 61.86 61.19 60.20 59.97 60.88 61.51 59.68 59.75
MSLP
1011.50 1011.58 1011.65 1011.72 1012.54 1012.19 1010.87 1009.19 1006.77 1005.87 1004.60 1003.97 1003.10 1003.00 1003.62 1004.38 1005.11 1006.15 1005.04 1005.19 1005.90 1006.63 1007.53 1008.50 1008.91 1009.19 1009.44 1009.84 1010.02 1010.41 1010.98 1011.26 1011.49 1011.88 1012.08 1012.25 1012.51 1012.78 1012.97 1013.10 1013.36 1013.56 1013.66 1013.79 1013.74 1013.77 1013.90 1013.97 1013.92
1011.26 1011.44 1011.65 1011.75 1011.98 1011.44 1009.76 1008.11 1006.58 1005.16 1004.01 1002.75 1002.59 1003.09 1003.58 1004.41 1004.34 1004.82 1005.44 1005.96 1006.19 1006.78 1007.39 1007.97 1008.39 1008.70 1009.01 1009.52 1009.77 1010.15 1010.66 1011.18 1011.50 1011.80 1012.01 1012.14 1012.38 1012.65 1012.81 1012.99 1013.26 1013.41 1013.53 1013.56 1013.70 1013.70 1013.75 1013.88 1013.82
1011.33 1011.14 1011.80 1011.78 1011.41 1010.17 1008.74 1007.08 1005.72 1004.94 1003.64 1003.06 1002.93 1002.54 1003.76 1004.24 1004.34 1004.76 1005.11 1005.90 1006.71 1007.18 1007.18 1007.39 1007.77 1008.19 1008.64 1009.22 1009.42 1009.79 1010.24 1010.86 1011.27 1011.46 1011.75 1011.96 1012.19 1012.40 1012.53 1012.69 1012.92 1013.18 1013.26 1013.34 1013.48 1013.52 1013.60 1013.61 1013.57
1011.42 1011.82 1011.89 1011.56 1010.54 1008.72 1007.58 1005.83 1005.89 1005.12 1003.63 1002.66 1002.68 1003.34 1003.50 1003.65 1004.10 1004.35 1005.27 1005.65 1006.37 1006.87 1006.90 1007.06 1007.41 1007.87 1008.13 1008.65 1009.09 1009.17 1009.59 1010.20 1010.72 1011.06 1011.39 1011.67 1011.82 1012.02 1012.20 1012.47 1012.67 1012.77 1012.90 1013.07 1013.24 1013.30 1013.33 1013.39 1013.39
1011.52 1012.06 1012.01 1011.42 1009.79 1007.78 1006.47 1006.10 1004.84 1004.51 1003.44 1003.11 1002.62 1003.24 1003.78 1003.69 1003.59 1004.24 1004.84 1005.18 1005.82 1006.57 1006.67 1006.96 1007.34 1007.65 1007.89 1008.36 1008.77 1009.11 1009.16 1009.55 1010.08 1010.55 1010.96 1011.35 1011.51 1011.74 1011.93 1012.19 1012.33 1012.47 1012.61 1012.85 1012.94 1012.99 1013.10 1013.22 1013.21
1011.77 1012.19 1012.10 1011.06 1009.20 1006.90 1006.02 1005.42 1004.77 1004.21 1003.69 1002.92 1003.30 1003.62 1003.74 1004.00 1003.91 1004.16 1004.35 1004.55 1005.04 1005.49 1006.16 1006.49 1006.92 1007.12 1007.40 1007.87 1008.28 1008.71 1009.09 1009.13 1009.60 1010.07 1010.50 1010.92 1011.32 1011.56 1011.80 1011.94 1012.07 1012.19 1012.38 1012.57 1012.65 1012.81 1012.91 1012.90 1012.96
1011.62 1012.31 1011.72 1010.62 1008.70 1007.12 1005.27 1004.60 1004.51 1003.95 1003.56 1002.88 1002.62 1003.77 1003.93 1004.06 1003.79 1003.57 1003.70 1004.23 1004.68 1005.30 1005.95 1006.33 1006.62 1007.03 1007.31 1007.58 1007.86 1008.05 1008.52 1008.70 1008.99 1009.52 1009.99 1010.39 1010.92 1011.43 1011.68 1011.77 1011.89 1012.00 1012.22 1012.31 1012.40 1012.53 1012.61 1012.62 1012.72
1011.32 1011.73 1011.42 1010.10 1008.72 1006.56 1005.25 1004.46 1004.13 1003.70 1003.40 1002.62 1002.63 1003.56 1004.07 1003.66 1003.52 1004.14 1003.96 1004.41 1004.52 1005.11 1005.67 1005.90 1006.15 1006.74 1007.04 1007.27 1007.54 1007.74 1007.93 1008.36 1008.38 1008.75 1009.43 1009.96 1010.46 1011.01 1011.47 1011.63 1011.70 1011.83 1011.99 1012.00 1012.13 1012.19 1012.29 1012.32 1012.50
1010.28 1011.29 1010.80 1009.58 1007.94 1006.16 1005.43 1005.80 1003.72 1003.87 1003.30 1003.19 1002.87 1002.92 1002.91 1002.66 1002.76 1003.77 1003.82 1004.55 1004.97 1005.15 1005.23 1005.65 1005.92 1006.23 1006.63 1006.88 1007.21 1007.75 1008.07 1008.35 1008.54 1008.57 1008.90 1009.62 1010.12 1010.63 1011.11 1011.41 1011.49 1011.63 1011.71 1011.75 1011.86 1012.00 1012.06 1012.13 1012.24
1009.89 1010.01 1009.56 1008.14 1007.35 1006.26 1005.30 1005.69 1005.39 1004.44 1004.29 1003.23 1002.68 1002.24 1002.19 1002.05 1002.57 1003.23 1003.64 1003.87 1004.15 1004.53 1004.96 1005.30 1005.46 1005.88 1006.48 1006.75 1007.08 1007.48 1007.93 1008.35 1008.52 1008.61 1008.68 1009.22 1009.80 1010.31 1010.70 1011.06 1011.19 1011.38 1011.51 1011.62 1011.62 1011.73 1011.89 1012.00 1012.16
1008.86 1007.99 1008.12 1007.32 1006.96 1006.51 1005.68 1005.34 1005.10 1004.71 1004.13 1003.62 1003.02 1002.58 1002.23 1002.24 1002.13 1002.80 1002.64 1002.59 1002.55 1002.91 1003.61 1004.20 1004.55 1005.14 1005.76 1006.27 1006.77 1007.14 1007.52 1007.76 1008.21 1008.38 1008.70 1008.96 1009.56 1010.14 1010.51 1010.84 1010.89 1011.15 1011.35 1011.56 1011.48 1011.64 1011.82 1011.86 1012.08
1008.70 1007.56 1007.52 1007.11 1006.52 1006.15 1005.44 1005.15 1004.58 1004.53 1003.87 1003.41 1002.89 1002.51 1002.37 1002.37 1002.51 1002.76 1002.75 1002.39 1002.08 1001.88 1002.51 1002.91 1003.65 1004.48 1004.91 1005.51 1005.93 1006.47 1007.10 1007.27 1007.86 1007.96 1008.45 1008.93 1009.45 1010.03 1010.46 1010.61 1010.73 1011.00 1011.17 1011.43 1011.51 1011.68 1011.73 1011.81 1011.76
1007.80 1007.19 1007.39 1006.76 1006.31 1005.67 1005.27 1004.67 1004.22 1003.15 1003.03 1002.82 1002.33 1002.18 1002.10 1002.09 1002.15 1001.99 1002.07 1002.03 1001.53 1001.74 1001.76 1002.08 1002.71 1003.54 1004.04 1004.60 1005.31 1005.78 1006.20 1006.71 1007.16 1007.52 1008.06 1008.55 1009.09 1009.58 1010.01 1010.33 1010.47 1010.82 1011.15 1011.33 1011.44 1011.57 1011.65 1011.67 1011.65
1007.29 1007.45 1006.96 1006.58 1005.86 1005.38 1005.11 1003.93 1003.62 1002.66 1002.35 1001.74 1001.77 1001.73 1001.45 1001.47 1001.62 1001.45 1001.50 1001.49 1001.51 1000.97 1001.03 1001.55 1002.06 1002.51 1003.40 1003.76 1004.19 1004.59 1005.19 1005.89 1006.53 1006.98 1007.47 1007.95 1008.31 1008.92 1009.50 1009.88 1010.29 1010.52 1010.74 1010.90 1011.03 1011.24 1011.34 1011.35 1011.45
1007.80 1007.64 1006.95 1005.72 1005.63 1005.01 1004.96 1002.95 1002.17 1002.47 1002.03 1001.74 1001.56 1001.27 1001.08 1001.04 1000.97 1001.03 1000.84 1000.79 1000.55 1000.36 1000.21 1000.58 1001.05 1001.67 1002.35 1002.67 1003.19 1003.94 1004.43 1005.37 1006.03 1006.48 1006.89 1007.28 1007.60 1008.22 1008.81 1009.26 1009.76 1010.11 1010.39 1010.71 1010.88 1010.97 1011.14 1011.31 1011.29
1007.99 1007.80 1006.62 1004.67 1005.32 1004.96 1005.31 1000.21 1001.72 1001.89 1001.78 1001.24 1000.97 1000.76 1000.56 1000.25 999.97 1000.01 999.97 1000.00 999.74 999.75 999.73 999.67 1000.24 1000.91 1001.55 1002.00 1002.42 1003.09 1003.66 1004.49 1005.32 1005.88 1006.37 1006.73 1006.95 1007.49 1008.37 1009.03 1009.49 1009.61 1010.09 1010.35 1010.69 1010.85 1011.04 1011.11 1011.14
1008.03 1006.75 1005.93 1004.34 1005.09 1005.04 1004.54 999.26 1001.85 1001.70 1001.51 1001.08 1000.86 1000.33 1000.03 999.61 999.36 999.35 999.04 998.85 998.83 998.69 999.04 999.63 1000.14 1000.36 1000.67 1001.30 1001.90 1002.46 1003.10 1003.93 1004.77 1005.45 1006.01 1006.33 1006.72 1007.29 1007.91 1008.72 1009.15 1009.18 1009.76 1010.21 1010.41 1010.57 1010.77 1010.83 1010.88
1007.31 1006.46 1004.90 1004.54 1004.94 1004.67 1004.11 999.80 1001.49 1001.44 1001.15 1000.55 1000.19 999.73 999.51 999.15 998.88 998.38 998.11 997.78 998.05 998.34 998.55 999.09 999.50 999.87 1000.49 1001.26 1001.86 1002.57 1003.20 1003.83 1004.40 1005.08 1005.64 1006.07 1006.56 1007.03 1007.86 1008.46 1008.70 1009.06 1009.72 1010.08 1010.34 1010.37 1010.33 1010.35 1010.40
1006.75 1006.46 1005.49 1004.83 1004.55 1004.37 1002.71 1001.32 1000.98 1000.77 1000.42 1000.11 999.60 999.19 998.67 998.40 997.71 997.54 997.57 997.72 997.98 997.97 998.44 999.04 999.34 999.81 1000.35 1001.03 1001.52 1002.50 1003.00 1003.82 1004.43 1004.79 1005.37 1006.14 1006.35 1006.92 1007.67 1008.17 1008.48 1009.05 1009.39 1009.57 1009.86 1010.11 1010.11 1010.17 1010.29
1007.19 1006.49 1005.39 1005.42 1004.53 1003.71 1003.05 1001.25 1000.52 1000.10 999.71 999.58 999.00 998.68 998.38 998.18 997.64 997.39 997.27 997.25 997.26 997.28 997.61 998.25 998.74 999.13 999.44 1000.13 1000.81 1001.83 1002.76 1003.76 1004.16 1004.86 1005.52 1005.97 1006.50 1006.92 1007.48 1007.75 1008.29 1008.85 1009.19 1009.41 1009.73 1009.81 1009.98 1010.05 1010.15
1006.34 1006.19 1006.06 1005.86 1005.07 1003.59 1003.85 1001.33 1001.21 999.37 998.98 998.90 998.59 997.82 997.72 997.32 997.10 997.16 996.98 996.73 996.91 997.41 997.66 997.88 998.43 998.99 999.43 999.80 1000.91 1002.15 1003.05 1004.02 1004.74 1005.35 1005.53 1005.81 1006.32 1006.78 1007.23 1007.69 1008.17 1008.55 1008.88 1009.18 1009.19 1009.30 1009.58 1009.82 1009.95
1005.96 1006.19 1006.02 1006.01 1005.93 1004.63 1004.35 1001.77 1000.45 999.14 998.16 998.18 997.93 997.67 997.03 996.51 996.64 996.65 996.44 996.70 996.78 997.06 997.76 998.15 998.66 999.11 1000.01 999.98 1000.73 1001.82 1003.04 1003.97 1004.42 1004.97 1005.38 1005.97 1006.47 1006.79 1007.04 1007.36 1007.93 1008.27 1008.61 1008.78 1008.85 1008.92 1009.25 1009.54 1009.87
1005.31 1005.74 1005.76 1005.82 1005.60 1005.42 1004.28 1003.68 996.16 998.53 997.81 997.44 997.08 996.49 996.33 996.08 996.09 996.13 996.16 996.43 996.75 997.19 997.77 998.40 999.00 999.60 1000.35 1000.37 1001.01 1002.14 1003.23 1003.83 1004.35 1004.95 1005.65 1006.21 1006.55 1006.66 1007.00 1007.43 1007.78 1008.08 1008.31 1008.43 1008.47 1008.69 1008.96 1009.20 1009.42
1005.50 1005.37 1005.64 1005.88 1006.05 1005.02 1003.29 1003.13 997.75 997.88 997.00 996.48 995.83 995.68 995.75 995.77 995.83 995.70 995.84 996.32 997.19 997.49 997.89 998.76 999.39 1000.17 1000.48 1000.86 1001.69 1002.40 1003.27 1004.05 1004.67 1005.36 1005.95 1006.43 1006.64 1006.86 1007.10 1007.41 1007.64 1007.82 1008.05 1008.16 1008.17 1008.29 1008.57 1008.81 1009.00
1005.43 1005.95 1006.32 1006.40 1006.02 1002.58 1002.51 1002.00 997.89 996.47 995.80 995.59 995.52 995.42 995.25 995.65 995.85 996.30 996.35 996.98 997.61 997.90 998.38 999.24 999.82 1000.53 1000.85 1001.53 1002.26 1002.87 1003.37 1003.99 1004.70 1005.44 1005.98 1006.51 1006.86 1007.08 1007.20 1007.33 1007.49 1007.63 1007.72 1007.81 1007.84 1007.97 1008.25 1008.39 1008.55
1005.12 1005.78 1005.60 1005.26 1004.80 1003.38 1002.68 999.68 997.60 995.79 995.24 994.52 994.82 994.86 995.43 996.07 996.40 996.96 997.37 997.67 998.08 998.48 999.10 999.79 1000.17 1000.85 1001.40 1002.10 1002.74 1003.13 1003.50 1004.28 1005.00 1005.45 1005.91 1006.37 1006.77 1006.82 1006.93 1007.14 1007.27 1007.37 1007.45 1007.45 1007.47 1007.71 1007.88 1007.94 1008.16
1005.02 1005.00 1005.23 1005.47 1004.42 1003.96 1001.43 998.69 996.42 994.99 994.23 993.85 994.23 995.03 995.74 996.33 996.88 997.38 997.85 998.28 998.58 999.17 999.55 1000.04 1000.62 1001.26 1001.84 1002.47 1003.09 1003.53 1004.00 1004.62 1005.23 1005.68 1005.95 1006.28 1006.42 1006.68 1006.86 1006.97 1007.06 1007.12 1007.05 1007.10 1007.18 1007.33 1007.42 1007.57 1007.74
1004.97 1004.98 1005.11 1005.27 1004.97 1003.79 1001.06 998.83 996.49 994.56 993.92 993.68 993.93 994.93 995.90 996.58 997.18 997.60 998.13 998.60 999.07 999.70 1000.04 1000.49 1001.04 1001.60 1002.14 1002.75 1003.30 1003.79 1004.23 1004.62 1005.11 1005.44 1005.88 1006.05 1006.42 1006.56 1006.68 1006.81 1006.87 1006.94 1006.84 1006.89 1006.93 1007.02 1007.16 1007.32 1007.37
1005.29 1004.79 1004.81 1004.84 1004.29 1002.82 1001.04 998.17 994.92 994.55 993.73 993.45 993.51 994.24 995.33 996.33 997.12 997.67 998.27 998.94 999.49 1000.00 1000.42 1001.06 1001.48 1001.93 1002.53 1003.01 1003.47 1003.89 1004.32 1004.67 1005.15 1005.49 1005.82 1006.11 1006.35 1006.40 1006.62 1006.64 1006.77 1006.76 1006.81 1006.73 1006.74 1006.62 1006.87 1007.14 1007.12
1005.65 1005.65 1005.82 1005.37 1004.14 1002.33 1000.76 997.28 994.60 993.94 993.43 992.68 992.95 994.02 995.20 996.28 997.01 997.77 998.56 999.14 999.83 1000.30 1000.83 1001.41 1001.80 1002.25 1002.65 1003.10 1003.56 1003.90 1004.40 1004.81 1005.30 1005.68 1005.86 1006.05 1006.24 1006.34 1006.40 1006.47 1006.50 1006.53 1006.72 1006.66 1006.65 1006.69 1006.79 1007.04 1007.03
Wind_Speed
5 3 1 2 3 3 4 7 5 6 8 3 6 6 6 4 6 6 4 12 13 17 16 17 19 19 18 18 18 18 16 16 16 15 16 15 13 12 11 10 8 7 6 4 3 3 2 2 3
3 3 3 2 3 1 5 6 8 3 3 9 11 8 7 3 1 6 5 4 13 16 15 15 21 21 20 20 20 20 18 17 16 16 16 15 15 13 12 10 9 8 7 6 4 4 4 4 4
1 1 3 3 3 6 4 5 5 5 4 5 4 3 5 4 3 5 5 12 11 13 14 16 23 22 22 21 21 21 20 18 17 17 16 16 15 14 13 12 11 10 8 7 7 6 6 6 7
2 3 4 2 8 7 5 14 2 5 6 6 2 2 4 4 5 9 13 16 14 14 14 19 23 23 23 23 22 22 22 20 19 18 17 17 16 15 14 13 12 10 9 9 9 9 9 9 9
3 2 1 3 7 7 11 9 4 6 3 3 3 5 1 1 10 16 17 17 16 14 13 16 23 22 23 23 22 22 23 22 21 19 19 18 17 17 16 15 13 11 10 11 10 11 10 9 9
2 1 1 5 8 7 5 6 12 5 2 9 2 3 4 4 12 14 16 17 16 18 16 16 23 24 24 24 24 23 22 23 22 21 20 18 17 17 16 15 14 12 12 12 11 10 10 8 7
5 3 5 4 5 6 1 7 5 4 4 5 4 7 2 3 9 17 17 13 14 13 15 14 16 20 23 23 24 24 24 24 23 22 20 19 17 15 15 14 14 13 13 13 13 12 11 10 10
4 4 3 5 5 9 4 10 5 8 8 1 6 6 4 6 7 3 6 4 9 10 12 14 15 15 16 15 24 24 24 24 24 23 21 19 17 16 15 13 13 14 13 14 14 13 12 10 11
7 1 5 7 7 8 9 8 27 2 9 2 3 6 9 9 9 5 5 9 8 8 12 12 14 15 15 14 15 20 22 21 21 21 21 16 8 9 11 11 13 14 15 14 13 12 11 10 11
6 7 10 9 5 6 5 6 16 19 10 8 7 3 6 1 8 10 7 8 11 14 11 12 13 14 13 11 11 12 11 10 11 11 12 8 7 7 8 10 14 15 16 14 13 12 12 10 3
6 14 13 14 11 10 11 12 7 17 16 8 4 8 7 7 8 3 6 6 8 13 12 17 16 15 15 12 8 7 7 7 7 10 9 8 6 5 4 3 3 5 12 4 7 5 4 5 4
14 15 16 16 17 14 16 14 17 15 18 12 10 8 6 7 8 8 9 10 8 7 13 17 16 15 15 10 10 10 9 8 8 9 10 7 5 5 4 3 4 4 3 5 4 3 4 5 5
21 19 15 13 16 20 18 21 20 23 18 16 11 8 8 8 10 8 11 10 10 8 9 16 16 16 15 16 10 10 11 9 9 9 9 7 6 6 4 4 4 4 4 4 4 5 4 5 6
4 5 13 17 19 19 19 22 20 22 19 21 13 11 11 9 11 8 9 10 10 11 8 13 16 17 15 16 15 12 11 10 9 9 9 11 8 7 5 5 5 4 5 4 4 5 5 5 4
11 10 14 20 12 17 16 26 28 20 20 19 14 12 10 11 10 11 11 10 12 9 9 14 17 17 18 19 14 11 10 9 9 9 11 13 11 9 9 5 4 4 4 5 4 3 2 3 3
3 4 17 20 18 10 8 35 20 11 15 20 17 18 18 14 15 15 12 10 9 9 10 9 10 16 16 16 12 11 10 10 9 8 9 12 12 10 6 5 4 5 5 5 4 4 4 4 4
7 17 20 26 6 4 12 39 15 14 16 12 11 14 15 19 18 11 14 11 11 11 10 7 8 13 16 13 9 10 10 9 7 7 7 10 10 9 7 5 5 6 4 4 3 3 4 4 4
9 20 19 16 6 13 18 37 21 17 19 22 22 22 20 20 18 17 16 14 10 8 9 5 10 10 10 6 6 4 6 5 6 7 6 9 8 9 6 5 5 5 4 4 3 5 4 4 4
10 11 10 5 10 11 22 24 21 17 15 13 14 16 20 19 17 11 8 8 9 9 9 11 10 9 10 9 8 7 6 7 5 5 8 7 5 7 7 4 4 4 5 6 5 3 5 4 3
14 16 19 6 9 16 18 29 24 23 22 19 22 20 17 15 9 10 9 9 9 8 9 7 9 13 11 9 7 5 6 3 5 5 8 8 7 7 6 6 5 6 4 4 3 4 1 3 4
16 19 12 8 12 23 8 19 8 15 11 10 11 14 10 13 11 10 10 12 6 9 9 9 9 9 8 11 9 6 6 5 3 3 3 5 7 7 7 7 6 5 3 4 3 4 6 3 2
19 12 13 16 14 13 8 22 22 14 22 16 12 11 12 14 9 11 12 7 9 7 6 8 10 11 8 11 10 13 5 5 3 4 4 5 6 7 6 6 5 5 4 4 4 4 3 3 3
19 10 16 13 9 15 16 7 21 10 17 18 15 14 11 11 11 12 10 8 6 9 9 10 11 9 7 9 11 9 6 3 3 3 8 6 4 5 5 6 5 4 4 4 5 4 4 3 3
6 9 15 12 2 9 13 12 8 14 15 8 9 9 11 11 10 8 4 10 10 9 11 11 12 8 8 9 9 9 9 7 5 5 5 4 3 3 4 5 4 4 4 5 4 5 5 5 4
4 1 3 2 5 18 12 12 19 10 8 15 16 15 14 8 4 7 11 12 11 12 12 10 12 9 9 10 9 8 8 9 9 7 5 6 3 2 3 4 4 3 5 5 4 3 4 4 4
7 10 6 8 5 4 12 12 9 16 20 26 20 18 4 5 6 7 7 9 12 13 10 10 12 10 10 9 8 7 9 6 5 5 4 4 4 3 4 4 4 5 5 5 5 3 4 4 4
5 11 5 6 15 2 6 8 10 19 25 20 19 8 8 8 9 11 10 10 11 10 11 11 10 10 10 9 8 7 7 8 7 7 6 4 3 3 5 5 5 4 6 5 5 4 4 4 3
7 5 5 3 8 6 5 7 9 7 11 12 13 10 8 8 11 11 11 11 9 9 9 9 9 11 9 9 8 8 8 8 7 6 6 5 4 4 5 4 3 4 4 4 5 4 3 5 3
4 1 3 4 4 9 3 7 12 11 13 18 8 14 16 14 13 12 11 10 10 10 9 8 8 9 8 8 7 8 7 8 6 6 5 5 4 4 5 4 4 4 3 3 3 3 3 4 2
4 6 5 3 7 6 3 13 17 8 13 11 14 16 13 13 12 13 12 12 12 10 9 8 7 8 8 7 7 7 7 7 7 6 6 5 5 4 5 4 4 4 3 3 3 4 3 5 4
Wind_Direction
162 169 80 67 69 78 257 261 282 293 342 337 289 77 141 116 157 204 310 149 129 148 155 162 162 160 155 155 152 150 154 151 150 152 148 146 147 148 147 145 147 154 155 156 155 162 203 234 235
164 166 51 54 107 162 263 235 250 243 266 30 349 101 16 49 54 125 98 136 147 146 154 163 166 164 163 163 159 157 158 159 160 158 157 158 158 160 160 160 167 174 178 182 197 209 226 244 250
248 280 94 139 192 200 209 238 204 348 344 49 22 346 132 141 79 129 112 123 135 154 163 168 169 169 167 168 166 163 160 164 167 164 167 167 167 169 169 172 179 185 192 202 216 222 235 247 246
120 7 1 135 238 263 261 269 321 276 281 83 354 324 81 246 140 149 143 144 152 169 171 172 173 174 171 173 174 168 165 169 172 173 175 176 175 178 178 183 189 192 199 212 223 230 238 245 252
54 57 130 246 253 251 258 301 278 246 247 190 160 177 130 327 147 142 158 161 164 173 176 173 177 178 176 178 176 176 171 172 176 179 181 184 184 185 185 190 195 199 207 219 228 238 251 248 259
39 90 144 224 246 270 250 270 249 217 221 279 236 89 185 186 140 176 169 178 174 169 177 178 184 184 181 180 180 179 181 177 180 182 185 188 192 191 194 195 197 202 211 223 236 238 237 233 244
135 107 234 249 261 279 29 302 329 237 199 257 147 135 280 279 216 180 187 178 172 173 170 181 186 189 187 186 184 183 186 185 182 184 189 190 192 195 199 199 201 206 215 226 232 235 236 237 242
157 123 257 235 229 262 43 335 303 34 300 166 130 157 197 258 283 276 189 181 169 164 177 183 184 190 192 190 192 191 189 191 186 185 189 191 191 194 203 206 208 212 221 222 223 232 237 241 246
148 132 231 237 211 247 84 58 288 344 337 193 163 145 186 199 211 213 236 153 195 183 186 186 185 189 193 193 198 197 198 197 194 189 188 190 184 189 202 210 214 217 220 222 225 233 239 240 247
171 187 229 229 267 297 348 132 273 305 308 307 308 196 324 354 164 185 201 227 165 197 193 186 187 191 191 195 194 195 198 202 200 199 190 180 176 184 195 216 223 222 223 224 225 234 243 250 214
218 227 211 251 271 286 283 280 223 285 281 256 248 295 297 290 308 288 231 215 219 184 188 190 191 187 185 191 186 192 198 194 203 198 188 175 173 188 197 209 228 214 227 224 221 232 241 223 216
259 246 238 249 262 271 263 276 274 254 265 251 246 230 248 231 252 258 238 237 238 224 182 191 190 187 188 185 191 190 197 192 200 192 180 174 170 184 205 197 201 196 201 206 207 219 239 237 229
253 255 252 253 251 254 265 264 263 274 275 264 258 257 255 251 250 233 228 247 247 243 182 193 183 188 189 189 188 191 195 197 195 185 184 178 177 181 190 202 184 203 184 209 207 219 225 230 233
296 275 262 252 253 258 260 266 267 269 274 282 281 281 279 257 245 253 251 240 242 244 222 191 190 189 183 192 190 192 188 193 187 186 187 184 176 180 180 190 189 198 189 205 200 213 218 231 207
264 286 283 259 251 253 261 261 251 257 269 271 273 273 270 259 262 241 242 234 228 235 229 179 188 183 185 193 190 186 184 179 185 186 186 183 179 181 185 179 182 183 188 193 197 184 185 218 223
263 247 246 247 244 246 267 262 257 259 251 255 260 270 265 259 256 267 247 232 233 221 206 198 179 179 188 192 187 184 178 174 180 178 179 183 183 176 153 159 176 181 184 184 183 189 215 222 221
207 237 234 249 221 228 212 264 255 234 251 262 263 265 268 276 275 252 247 230 230 203 209 191 180 184 188 190 176 178 167 167 167 165 169 178 174 165 160 165 182 174 178 186 193 214 213 219 227
210 218 232 256 210 215 234 262 257 264 267 267 269 268 269 266 264 250 245 230 221 219 216 203 189 185 177 151 131 121 133 137 145 160 157 161 166 167 151 175 179 160 159 185 230 223 222 215 214
271 263 253 243 199 217 240 263 257 249 252 258 265 269 261 260 252 257 252 243 213 194 182 193 168 169 154 161 151 151 153 146 130 139 139 145 164 161 169 181 169 169 175 197 214 228 219 245 202
244 265 263 301 275 216 243 251 264 264 261 255 258 259 255 247 257 256 239 220 211 204 205 172 178 168 168 167 167 118 139 111 142 145 162 173 177 165 170 162 176 181 186 224 217 195 203 247 186
242 234 262 265 296 291 301 281 247 261 257 255 256 251 250 241 248 255 243 224 176 193 189 168 162 151 148 126 112 92 83 77 89 73 123 160 159 155 156 166 164 169 178 210 210 199 184 195 207
249 251 241 248 261 266 215 281 257 262 266 261 244 248 250 266 249 246 240 212 188 172 135 125 126 125 135 134 121 139 131 142 158 149 126 130 148 155 157 149 154 177 184 196 209 200 186 151 188
250 254 231 252 237 248 247 273 267 207 249 251 252 244 250 252 254 255 245 194 176 144 133 124 120 120 134 114 125 131 123 129 134 107 121 132 154 148 149 151 165 185 187 200 202 199 193 186 172
290 231 242 261 217 253 224 221 276 235 239 245 240 270 261 260 263 249 172 133 132 123 116 122 124 124 116 110 122 127 137 133 111 108 120 130 124 135 150 151 179 189 188 202 211 211 204 200 197
238 127 234 238 195 234 181 219 239 271 250 242 248 250 257 261 216 147 132 131 126 123 120 119 125 119 114 110 112 124 130 126 130 135 135 142 139 186 188 165 188 194 206 211 209 211 203 202 201
187 170 181 192 200 279 241 242 242 235 257 256 252 252 160 145 119 115 114 119 122 122 114 119 119 120 114 112 114 107 112 113 120 137 140 151 178 170 161 176 182 207 210 211 199 206 210 195 215
317 215 193 276 277 303 233 269 276 257 266 262 251 167 175 153 134 128 116 117 120 115 122 125 118 116 116 118 109 100 106 113 125 131 140 161 157 153 169 175 194 217 218 215 207 209 216 206 203
190 256 160 216 215 240 256 251 238 253 283 276 251 173 153 134 130 128 125 126 114 120 121 110 115 121 122 118 116 122 123 118 125 130 134 144 151 155 175 191 208 225 234 201 193 206 210 218 214
351 230 196 170 193 217 298 256 243 249 266 278 197 164 152 149 146 135 131 125 124 124 119 121 121 119 122 122 123 125 135 127 131 131 142 161 156 177 190 188 216 212 199 184 174 213 225 190 179
243 253 171 202 251 250 206 264 260 271 282 267 163 154 143 146 136 131 131 131 135 130 130 131 126 128 137 141 137 138 128 125 132 146 158 160 165 185 200 208 212 210 169 189 202 228 156 131 122